This is the latest recevied weather packets stored in our database for station/object N3EYQ. If no packets are shown the sender has not sent any weather packets the latest 10 day(s).
| Time | Temp. | Humidity | Pressure | Rain* | Wind** | Luminosity | Snow |
|---|---|---|---|---|---|---|---|
| 1777756195 | 14.44° C | 40% | 1010.6 hPa | 0 mm | - | - | - |
| 1777755595 | 14.44° C | 40% | 1010.6 hPa | 0 mm | - | - | - |
| 1777754995 | 15° C | 39% | 1010.3 hPa | 0 mm | - | - | - |
| 1777754394 | 15.56° C | 39% | 1010.3 hPa | 0 mm | - | - | - |
| 1777753794 | 15° C | 39% | 1010.3 hPa | 0 mm | - | - | - |
| 1777753194 | 14.44° C | 40% | 1010.6 hPa | 0 mm | - | - | - |
| 1777752594 | 14.44° C | 39% | 1010.6 hPa | 0 mm | - | - | - |
| 1777751994 | 14.44° C | 45% | 1011 hPa | 0 mm | - | - | - |
| 1777751394 | 13.89° C | 43% | 1011 hPa | 0 mm | - | - | - |
| 1777750794 | 14.44° C | 47% | 1011 hPa | 0 mm | - | - | - |
| 1777750194 | 14.44° C | 46% | 1011 hPa | 0 mm | - | - | - |
| 1777749593 | 13.89° C | 46% | 1011.3 hPa | 0 mm | - | - | - |
| 1777748993 | 13.89° C | 49% | 1011.3 hPa | 0 mm | - | - | - |
| 1777748394 | 13.89° C | 47% | 1011.3 hPa | 0 mm | - | - | - |
| 1777747793 | 13.89° C | 49% | 1011.3 hPa | 0 mm | - | - | - |
| 1777747193 | 13.33° C | 47% | 1011.3 hPa | 0 mm | - | - | - |
| 1777746593 | 13.33° C | 49% | 1011.6 hPa | 0 mm | - | - | - |
| 1777745993 | 13.33° C | 47% | 1011.3 hPa | 0 mm | - | - | - |
| 1777745393 | 13.33° C | 50% | 1011.3 hPa | 0 mm | - | - | - |
| 1777744792 | 13.89° C | 49% | 1011.6 hPa | 0 mm | - | - | - |
| 1777744193 | 13.33° C | 49% | 1011.3 hPa | 0 mm | - | - | - |
| 1777743592 | 13.33° C | 54% | 1011.6 hPa | 0 mm | - | - | - |
| 1777742992 | 13.33° C | 54% | 1011.6 hPa | 0 mm | - | - | - |
| 1777742392 | 13.89° C | 49% | 1011.6 hPa | 0 mm | - | - | - |
| 1777741793 | 15° C | 51% | 1011.6 hPa | 0 mm | - | - | - |
* Rain latest hour (hover to see other rain measurements)
** Current wind speed in m/s (hover to see current wind gust speed)